Content
SEND FEEDBACK

Daily
Averages
Monthly
Summary
French Polynesia

PAPEETE, FRENCH POLYNESIA


Home > Oceania > French Polynesia
Elevation: 2 meters     Latitude: 17 33S     Longitude: 149 36W

WEATHER
 
SELECT A DAY
Number of Records: 214,388;   Date Range: 6/30/96 - 10/24/14
 
SHARE

PRINT THIS DATA

[ ← Previous Day ]
WEATHER ALMANAC - 18 FEBRUARY, 2013
[ Next Day → ]
[ °F ]   °C
Weather ElementAverageHighLow
Temperature27.7 °C30 °C (8:00 am)25 °C (2:30 am)
Dewpoint21.1 °C23.3 °C (11:00 am)17 °C (9:30 pm)
Humidity66.5 %83 % (11:30 am)44 % (2:00 pm)
Barometer1011.5 hPa1013.9 hPa (11:00 am)1009.1 hPa (5:00 pm)
Wind Speed8 km/h29.6 km/h (9:00 pm)
Weather ElementAverage
Visibility11.9 km
Wind DirectionESE (109.6 °)

Weather ElementTotal
Precipitation---
Cooling Degree Days9.2 (Base 18.3)
Growing Degree Days17.5 (Base 10)
Averaged from 55 records on 18 February, 2013
WEATHER CONDITIONS BREAKOUT
WIND DIRECTION BREAKOUT
WEATHER BY HOUR - 18 FEBRUARY, 2013
[ °F ]   °C
Local TimeTemperatureDewpointHumidityBarometerVisibilityWind DirectionWind SpeedGust SpeedPrecipitationEventsConditions
12:30 AM26 °C19 °C65 %1011.2 hPa10 kmEast (80°)7.4 km/hPartly Cloudy
1:00 AM26 °C19 °C65 %1011.2 hPa10 kmEast (80°)1.9 km/hPartly Cloudy
1:30 AM26 °C19 °C65 %1011.2 hPa10 kmCalmMostly Cloudy
2:00 AM25.6 °C19.4 °C62 %1011.2 hPa19.3 kmCalmScattered Clouds
2:00 AM26 °C20 °C69 %1011.2 hPa10 kmCalmMostly Cloudy
2:30 AM25 °C19 °C69 %1010.2 hPa10 kmVariable1.9 km/hMostly Cloudy
3:00 AM26 °C20 °C69 %1010.2 hPa10 kmCalmMostly Cloudy
3:30 AM26 °C20 °C69 %1010.2 hPa10 kmVariable3.7 km/h
4:00 AM26 °C20 °C69 %1010.2 hPa10 kmCalm
4:30 AM26 °C21 °C74 %1011.2 hPa10 kmVariable5.6 km/h
5:00 AM26.1 °C20.6 °C65 %1011.2 hPa59.5 kmEast (90°)3.7 km/hClear
5:00 AM26 °C21 °C74 %1011.2 hPa10 kmVariable3.7 km/h
5:30 AM26 °C21 °C74 %1011.2 hPa10 kmEast (80°)5.6 km/h
6:00 AM25 °C21 °C78 %1011.2 hPa10 kmENE (60°)9.3 km/hMostly Cloudy
6:30 AM25 °C21 °C78 %1012.2 hPa10 kmESE (110°)5.6 km/hScattered Clouds
7:00 AM28 °C22 °C70 %1012.2 hPa10 kmSSE (160°)5.6 km/hScattered Clouds
7:30 AM29 °C22 °C66 %1012.2 hPa10 kmVariable3.7 km/hPartly Cloudy
8:00 AM29.4 °C22.2 °C58 %1012.9 hPa30.6 kmSouth (190°)7.4 km/hPartly Cloudy
8:00 AM30 °C22 °C62 %1012.2 hPa10 kmSouth (190°)7.4 km/hPartly Cloudy
8:30 AM30 °C22 °C62 %1013.2 hPa10 kmSW (220°)7.4 km/hPartly Cloudy
9:00 AM29 °C22 °C66 %1013.2 hPa10 kmSW (220°)11.1 km/hPartly Cloudy
9:30 AM29 °C22 °C66 %1013.2 hPa10 kmSSW (210°)9.3 km/hPartly Cloudy
10:00 AM29 °C22 °C66 %1013.2 hPa10 kmSSW (210°)7.4 km/hPartly Cloudy
10:30 AM28 °C22 °C70 %1013.2 hPa10 kmENE (70°)20.4 km/hScattered Clouds
11:00 AM26.7 °C23.3 °C76 %1013.9 hPa9.7 kmENE (60°)16.7 km/hRainLight Rain Showers
11:00 AM27 °C23 °C79 %1013.2 hPa9 kmENE (60°)16.7 km/hRainLight Rain Showers
11:30 AM26 °C23 °C83 %1013.2 hPa5 kmESE (120°)9.3 km/hRainLight Rain
12:00 PM27 °C23 °C79 %1012.2 hPa10 kmVariable3.7 km/hRainLight Rain
12:30 PM27 °C23 °C79 %1012.2 hPa10 kmNNE (20°)7.4 km/hRainLight Rain
1:00 PM29 °C21 °C62 %1011.2 hPa10 kmNW (320°)7.4 km/hPartly Cloudy
1:30 PM29 °C20 °C58 %1010.2 hPa10 kmSW (220°)13 km/hPartly Cloudy
2:00 PM30 °C19.4 °C44 %1010.5 hPa14.5 kmSSW (210°)11.1 km/hPartly Cloudy
2:00 PM30 °C20 °C55 %1010.2 hPa10 kmSSW (210°)11.1 km/hPartly Cloudy
2:30 PM29 °C21 °C62 %1010.2 hPa10 kmSW (230°)13 km/hPartly Cloudy
3:00 PM30 °C22 °C62 %1010.2 hPa10 kmSW (220°)14.8 km/hPartly Cloudy
3:30 PM30 °C21 °C58 %1010.2 hPa10 kmWSW (250°)7.4 km/hPartly Cloudy
4:00 PM30 °C21 °C58 %1010.2 hPa10 kmNorth (360°)5.6 km/hScattered Clouds
4:30 PM30 °C22 °C62 %1010.2 hPa10 kmNorth (350°)7.4 km/hScattered Clouds
5:00 PM30 °C21.1 °C50 %1010.2 hPa30.6 kmSSW (210°)3.5 km/hPartly Cloudy
5:00 PM30 °C21 °C58 %1009.1 hPa10 kmVariable1.9 km/hPartly Cloudy
5:30 PM30 °C23 °C66 %1010.2 hPa10 kmWest (270°)11.1 km/hScattered Clouds
6:00 PM29 °C22 °C66 %1010.2 hPa10 kmWSW (240°)11.1 km/hScattered Clouds
6:30 PM29 °C22 °C66 %1010.2 hPa10 kmVariable5.6 km/hScattered Clouds
7:00 PM28 °C22 °C70 %1011.2 hPa10 kmVariable1.9 km/hPartly Cloudy
7:30 PM28 °C22 °C70 %1011.2 hPa10 kmCalmPartly Cloudy
8:00 PM26.7 °C22.2 °C69 %1011.5 hPa14.5 kmEast (100°)3.7 km/hThunderstormThunderstorm
8:00 PM27 °C22 °C74 %1011.2 hPa10 kmVariable3.7 km/hThunderstormPartly Cloudy
8:30 PM27 °C22 °C74 %1012.2 hPa10 kmVariable3.7 km/hThunderstormPartly Cloudy
9:00 PM27 °C20 °C65 %1012.2 hPa10 kmENE (70°)29.6 km/hThunderstormScattered Clouds
9:30 PM28 °C17 °C51 %1012.2 hPa10 kmENE (70°)11.1 km/hScattered Clouds
10:00 PM28 °C21 °C66 %1012.2 hPa10 kmNE (40°)29.6 km/hScattered Clouds
10:30 PM27 °C21 °C70 %1012.2 hPa10 kmENE (60°)29.6 km/hMostly Cloudy
11:00 PM26.7 °C20 °C58 %1012.9 hPa14.5 kmEast (90°)5.6 km/hScattered Clouds
11:00 PM27 °C20 °C65 %1012.2 hPa10 kmEast (90°)5.6 km/hMostly Cloudy
11:30 PM27 °C21 °C70 %1012.2 hPa10 kmEast (80°)11.1 km/hMostly Cloudy
Hourly data recorded from NTAA, located 0 kilometers away from Papeete, French Polynesia







STORIES FROM OUR PARTNERS